Regional Weather Roundup
Issued by NWS Bismarck, ND

Home | Current Version | Previous Version | Text Only | Print | Product List | Glossary On
Versions: 1 2 3 4 5 6 7 8 9 10 11 12 13 14 15 16 17 18 19 20 21 22 23 24 25 26 27 28 29 30 31 32 33 34 35 36 37 38 39 40 41 42 43 44 45 46 47 48 49 50
000
ASUS43 KBIS 111420
RWRBIS

NWR BROADCAST TEXT
NATIONAL WEATHER SERVICE BISMARCK ND
900 AM CDT FRI JUL 11 2014

NOTE: "FAIR" INDICATES FEW OR NO CLOUDS BELOW 12,000 FEET WITH NO
SIGNIFICANT WEATHER AND/OR OBSTRUCTIONS TO VISIBILITY.


CITY           SKY/WX    TMP DP  RH WIND       PRES   REMARKS
WILLISTON      CLOUDY    66  58  75 NE9       30.03R
MINOT          PTSUNNY   67  59  75 NW10      29.95R
MINOT AFB      PTSUNNY   69  64  84 NW9       29.96R
BISMARCK       MOSUNNY   72  66  81 N8        29.95R
DICKINSON      MOSUNNY   68  61  78 N14       30.02R
GARRISON         N/A     66  62  87 W5        29.98R
HETTINGER ARPT SUNNY     68  63  84 N20G28    30.00R
JAMESTOWN      SUNNY     70  67  90 NW8       29.90R
CARRINGTON     FAIR      72  72 100 N7        29.93R
CROSBY           N/A     59  57  94 NW13      30.05R
HARVEY         FAIR      70  66  88 N8        29.93R
HAZEN          FAIR      68  63  83 N6        29.99F
LINTON         FAIR      68  68 100 NW5       29.92R
MANDAN         FAIR      68  66  94 NE6       29.97R
RUGBY          FAIR      68  59  73 N7        29.93R
STANLEY          N/A     66  63  88 NW16      30.02R
TIOGA          PTSUNNY   63  59  88 N9        30.06R
WATFORD CITY   FAIR      64  61  88 CALM      30.03R
$$

CITY           SKY/WX    TMP DP  RH WIND       PRES   REMARKS
GRAND FORKS    MOSUNNY   70  68  93 W5        29.84R
GRAND FORKS AF MOSUNNY   71  71 100 W6        29.85R
DEVILS LAKE    SUNNY     72  59  64 N13       29.90R
FARGO          SUNNY     75  69  81 MISG      29.84R
CANDO          FAIR      72  57  60 N9        29.92R
CAVALIER       FAIR      73  64  73 NW14      29.85R
GRAFTON        FAIR      72  68  88 W3        29.85R
GWINNER        SUNNY     77  73  88 NW5       29.87S
LANGDON        FAIR      70  59  68 N12       29.90R
ROLLA          FAIR      68  57  68 NW13      29.93R
WALHALLA         N/A     73  64  73 N14         N/A
$$

CITY           SKY/WX    TMP DP  RH WIND       PRES   REMARKS
ABERDEEN       SUNNY     74  69  85 CALM      29.87R
MOBRIDGE       SUNNY     72  68  87 NW7       29.87R
BUFFALO          N/A     70  63  78 NE15      29.95R
RAPID CITY     SUNNY     76  62  62 NW5       29.99R
GLASGOW        MOSUNNY   62  60  93 CALM      30.07F
SIDNEY         CLOUDY    68  61  77 S3        30.03F
WOLF POINT     CLOUDY    63  57  81 W9        30.09R
GLENDIVE       PTSUNNY   66  57  72 SW3       30.10R
MILES CITY     MOSUNNY   70  57  63 NE18G28   30.06R
BAKER          CLOUDY    68  58  70 NE17G31   30.06R
$$

CITY           SKY/WX    TMP DP  RH WIND       PRES   REMARKS
BILLINGS       CLOUDY    67  58  72 NE22G28   30.08R
GREAT FALLS    CLOUDY    60  52  74 N15       30.19R
REGINA         MOSUNNY   59  54  82 NW14G24   30.03R
ESTEVAN        PTSUNNY   59  54  82 NW12      30.02R
$$



USA.gov is the U.S. government's official web portal to all federal, state and local government web resources and services.